Location: Unspecified
(0.0000°N, 0.0000°E)
Time: 22:23:34
(UTC+00:00)

Explorer 11/Cluster Stage 4 - Visible Passes

Search period start: 28 May 2022 00:00
Search period end: 07 June 2022 00:00
Orbit: 466 x 1252 km, 28.8° (Epoch: 27 May)

Date Brightness Start Highest point End Pass type
(mag) Time Alt. Az. Time Alt. Az. Time Alt. Az.
28 May 8.9 03:11:21 15° E 03:11:21 15° E 03:12:32 10° E visible
28 May 6.5 04:53:29 19° W 04:56:46 53° SSW 05:02:28 10° SE visible
29 May 6.7 04:43:23 32° WSW 04:44:54 41° SSW 04:50:09 10° SE visible
30 May 7.0 04:33:12 32° SSW 04:33:12 32° SSW 04:37:47 10° SE visible
31 May 7.8 04:22:53 21° S 04:22:53 21° S 04:25:22 10° SSE visible
01 Jun 8.5 04:12:28 11° SSE 04:12:28 11° SSE 04:12:52 10° SSE visible
